Terminal Aerodrome Forecast
Issued by NWS

Home | Current Version | Previous Version | Text Only | Print | Product List | Glossary On
Versions: 1 2 3 4 5 6 7 8 9 10 11 12
000
FTAK31 PAJN 051140
TAFASI
TAF
PASI 051140Z 0512/0612 09007KT P6SM -RA SCT015 BKN020 OVC030
      TEMPO 0512/0516 5SM RA BR BKN015
     FM051600 11008KT P6SM -RA SCT020 OVC035
     FM052100 12012KT P6SM VCSH SCT020 OVC040
     FM060300 14012G22KT P6SM -RA SCT025 OVC035
     FM060700 14015G25KT 5SM RA BR SCT008 BKN015 OVC025
      WS020/17040KT=

USA.gov is the U.S. government's official web portal to all federal, state and local government web resources and services.